SCF7708 ZUUU-ZPLJ

Flight info

Callsign SCF7708
Flight time 1h 32m
Altitude 30100
Route LUVEN6N LUVEN G212 SGM A599 GULOT W146 BUBSU W162 CEH
Aircraft A320/M-SDE3FGHIRWY/LB1

Departure

Time 2026-05-06 15:23
Airport Chengdu Shuangliu International Airport (ZUUU)

Arrival

Time 2026-05-06 16:55
Airport Lijiang Sanyi International Airport (ZPLJ)
Time Latitude Longitude Altitude Speed Heading
2026-05-06 15:11 30.56725 103.94742 1647 ft 0 kts 196°
2026-05-06 15:16 30.56737 103.94747 1647 ft 2 kts 196°
2026-05-06 15:17 30.56754 103.94752 1647 ft 2 kts 196°
2026-05-06 15:17 30.56770 103.94758 1647 ft 2 kts 196°
2026-05-06 15:17 30.56787 103.94764 1647 ft 2 kts 230°
2026-05-06 15:17 30.56792 103.94775 1647 ft 0 kts 264°
2026-05-06 15:19 30.56791 103.94761 1647 ft 6 kts 264°
2026-05-06 15:19 30.56804 103.94669 1647 ft 17 kts 289°
2026-05-06 15:19 30.56852 103.94530 1647 ft 18 kts 291°
2026-05-06 15:19 30.56819 103.94434 1647 ft 14 kts 202°
2026-05-06 15:20 30.56725 103.94391 1647 ft 16 kts 202°
2026-05-06 15:20 30.56615 103.94339 1647 ft 19 kts 202°
2026-05-06 15:20 30.56491 103.94281 1647 ft 20 kts 202°
2026-05-06 15:20 30.56368 103.94222 1647 ft 14 kts 202°
2026-05-06 15:21 30.56305 103.94159 1647 ft 12 kts 262°
2026-05-06 15:21 30.56332 103.94067 1647 ft 13 kts 294°
2026-05-06 15:21 30.56407 103.94033 1648 ft 15 kts 24°
2026-05-06 15:21 30.56438 103.94046 1648 ft 0 kts 20°
2026-05-06 15:22 30.56442 103.94047 1648 ft 2 kts 20°
2026-05-06 15:22 30.56464 103.94057 1648 ft 5 kts 20°
2026-05-06 15:22 30.56494 103.94070 1649 ft 0 kts 21°
2026-05-06 15:22 30.56589 103.94113 1649 ft 43 kts 22°
2026-05-06 15:23 30.57088 103.94346 1646 ft 109 kts 22°
2026-05-06 15:23 30.57964 103.94752 1648 ft 159 kts 21°
2026-05-06 15:23 30.59096 103.95296 1875 ft 184 kts 22°
2026-05-06 15:23 30.60320 103.95873 2469 ft 195 kts 20°
2026-05-06 15:24 30.61595 103.96466 3021 ft 202 kts 19°
2026-05-06 15:24 30.62984 103.97110 3238 ft 228 kts 20°
2026-05-06 15:24 30.64537 103.97826 3608 ft 250 kts 21°
2026-05-06 15:24 30.66179 103.98585 4350 ft 256 kts 22°
2026-05-06 15:25 30.67825 103.99378 5270 ft 255 kts 29°
2026-05-06 15:25 30.69160 104.00704 6191 ft 253 kts 52°
2026-05-06 15:25 30.70115 104.02398 7138 ft 251 kts 59°
2026-05-06 15:25 30.70938 104.04197 7960 ft 253 kts 60°
2026-05-06 15:26 30.71744 104.06029 8746 ft 256 kts 60°
2026-05-06 15:26 30.72581 104.07874 9500 ft 260 kts 59°
2026-05-06 15:26 30.73456 104.09722 10244 ft 263 kts 58°
2026-05-06 15:26 30.74373 104.11595 10776 ft 271 kts 58°
2026-05-06 15:27 30.75327 104.13507 10934 ft 274 kts 59°
2026-05-06 15:27 30.75964 104.15593 10975 ft 279 kts 81°
2026-05-06 15:27 30.75764 104.17857 10977 ft 288 kts 105°
2026-05-06 15:27 30.74699 104.19852 10975 ft 299 kts 131°
2026-05-06 15:28 30.72910 104.21124 10971 ft 310 kts 160°
2026-05-06 15:28 30.70758 104.21285 10970 ft 317 kts 189°
2026-05-06 15:28 30.68628 104.20575 10975 ft 320 kts 196°
2026-05-06 15:28 30.66489 104.19774 11470 ft 323 kts 197°
2026-05-06 15:29 30.64366 104.18967 12364 ft 320 kts 197°
2026-05-06 15:29 30.62284 104.18175 13237 ft 318 kts 197°
2026-05-06 15:29 30.60190 104.17382 14056 ft 316 kts 197°
2026-05-06 15:29 30.58109 104.16601 14769 ft 314 kts 198°
2026-05-06 15:30 30.56028 104.15824 15457 ft 313 kts 198°
2026-05-06 15:30 30.53953 104.15052 16127 ft 313 kts 199°
2026-05-06 15:30 30.51875 104.14282 16791 ft 313 kts 199°
2026-05-06 15:30 30.49795 104.13511 17447 ft 314 kts 200°
2026-05-06 15:31 30.47719 104.12739 18094 ft 314 kts 200°
2026-05-06 15:31 30.45641 104.11912 18478 ft 322 kts 202°
2026-05-06 15:31 30.43507 104.10947 18593 ft 337 kts 204°
2026-05-06 15:32 30.38992 104.08771 18827 ft 365 kts 205°
2026-05-06 15:32 30.36604 104.07619 18933 ft 378 kts 204°
2026-05-06 15:32 30.34131 104.06443 19056 ft 390 kts 204°
2026-05-06 15:32 30.31579 104.05243 19181 ft 401 kts 204°
2026-05-06 15:33 30.28964 104.04043 19418 ft 408 kts 201°
2026-05-06 15:33 30.27147 104.03445 19609 ft 413 kts 194°
2026-05-06 15:33 30.23282 104.03065 20050 ft 423 kts 181°
2026-05-06 15:33 30.20330 104.03186 20359 ft 426 kts 181°
2026-05-06 15:34 30.17352 104.03303 20651 ft 430 kts 181°
2026-05-06 15:34 30.14344 104.03419 20973 ft 434 kts 181°
2026-05-06 15:34 30.12344 104.03500 21186 ft 436 kts 181°
2026-05-06 15:34 30.09304 104.03621 21498 ft 439 kts 181°
2026-05-06 15:35 30.06243 104.03738 21800 ft 442 kts 181°
2026-05-06 15:35 30.03160 104.03854 22106 ft 444 kts 182°
2026-05-06 15:35 30.00059 104.03968 22413 ft 447 kts 182°
2026-05-06 15:35 29.96941 104.04084 22689 ft 450 kts 182°
2026-05-06 15:36 29.93798 104.04202 22985 ft 453 kts 182°
2026-05-06 15:36 29.90643 104.04316 23292 ft 454 kts 182°
2026-05-06 15:36 29.87483 104.04434 23633 ft 455 kts 182°
2026-05-06 15:36 29.84312 104.04554 23888 ft 457 kts 182°
2026-05-06 15:37 29.81128 104.04677 24140 ft 459 kts 182°
2026-05-06 15:37 29.77935 104.04803 24380 ft 461 kts 182°
2026-05-06 15:37 29.74726 104.04856 24615 ft 461 kts 184°
2026-05-06 15:37 29.71514 104.04788 24851 ft 462 kts 186°
2026-05-06 15:38 29.68300 104.04635 25083 ft 463 kts 187°
2026-05-06 15:38 29.65076 104.04445 25312 ft 465 kts 187°
2026-05-06 15:38 29.61840 104.04255 25514 ft 467 kts 187°
2026-05-06 15:38 29.58590 104.04083 25738 ft 469 kts 186°
2026-05-06 15:39 29.55321 104.03934 25957 ft 471 kts 186°
2026-05-06 15:39 29.52043 104.03801 26181 ft 472 kts 186°
2026-05-06 15:39 29.48753 104.03677 26402 ft 474 kts 186°
2026-05-06 15:39 29.45447 104.03559 26622 ft 476 kts 186°
2026-05-06 15:40 29.42139 104.03445 26892 ft 476 kts 186°
2026-05-06 15:40 29.38828 104.03332 27211 ft 475 kts 186°
2026-05-06 15:40 29.35521 104.03279 27505 ft 476 kts 185°
2026-05-06 15:40 29.32200 104.03308 27768 ft 477 kts 184°
2026-05-06 15:41 29.28881 104.03383 28057 ft 478 kts 183°
2026-05-06 15:41 29.25560 104.03474 28364 ft 477 kts 183°
2026-05-06 15:41 29.22243 104.03561 28698 ft 476 kts 184°
2026-05-06 15:41 29.18933 104.03626 29036 ft 475 kts 184°
2026-05-06 15:42 29.15632 104.03676 29377 ft 474 kts 184°
2026-05-06 15:42 29.12342 104.03720 29714 ft 473 kts 185°
2026-05-06 15:42 29.09051 104.03759 29980 ft 473 kts 185°
2026-05-06 15:42 29.05769 104.03799 30030 ft 470 kts 184°
2026-05-06 15:43 28.99252 104.03882 30038 ft 468 kts 184°
2026-05-06 15:43 28.92744 104.03971 30038 ft 468 kts 184°
2026-05-06 15:44 28.86234 104.04060 30043 ft 468 kts 184°
2026-05-06 15:44 28.79725 104.04157 30029 ft 467 kts 184°
2026-05-06 15:45 28.73248 104.04246 30068 ft 465 kts 184°
2026-05-06 15:45 28.66781 104.04333 30066 ft 464 kts 184°
2026-05-06 15:46 28.60353 104.04135 30069 ft 459 kts 193°
2026-05-06 15:46 28.54386 104.02038 30073 ft 449 kts 210°
2026-05-06 15:47 28.49059 103.98403 30081 ft 447 kts 215°
2026-05-06 15:47 28.43761 103.94667 30079 ft 449 kts 215°
2026-05-06 15:48 28.38452 103.90943 30100 ft 448 kts 215°
2026-05-06 15:48 28.33156 103.87225 30101 ft 448 kts 215°
2026-05-06 15:49 28.27866 103.83501 30100 ft 447 kts 215°
2026-05-06 15:49 28.22577 103.79782 30102 ft 447 kts 215°
2026-05-06 15:50 28.17286 103.76072 30116 ft 447 kts 215°
2026-05-06 15:50 28.11998 103.72368 30114 ft 447 kts 215°
2026-05-06 15:51 28.06709 103.68669 30115 ft 447 kts 215°
2026-05-06 15:51 28.01420 103.64970 30118 ft 447 kts 215°
2026-05-06 15:52 27.96129 103.61275 30131 ft 447 kts 215°
2026-05-06 15:52 27.90837 103.57586 30134 ft 447 kts 215°
2026-05-06 15:53 27.85549 103.53895 30143 ft 447 kts 215°
2026-05-06 15:53 27.80250 103.50214 30138 ft 447 kts 215°
2026-05-06 15:54 27.74984 103.46562 30130 ft 447 kts 216°
2026-05-06 15:54 27.69682 103.42880 30130 ft 447 kts 216°
2026-05-06 15:55 27.64385 103.39203 30122 ft 447 kts 216°
2026-05-06 15:55 27.59085 103.35529 30121 ft 447 kts 216°
2026-05-06 15:56 27.53789 103.31868 30109 ft 447 kts 216°
2026-05-06 15:56 27.48493 103.28209 30109 ft 447 kts 216°
2026-05-06 15:57 27.43015 103.24865 30079 ft 452 kts 206°
2026-05-06 15:57 27.37170 103.22287 30095 ft 451 kts 206°
2026-05-06 15:58 27.31319 103.19706 30074 ft 453 kts 207°
2026-05-06 15:58 27.25465 103.17116 30069 ft 451 kts 207°
2026-05-06 15:59 27.19621 103.14534 30057 ft 451 kts 207°
2026-05-06 15:59 27.13757 103.11936 30054 ft 459 kts 207°
2026-05-06 16:00 27.07735 103.09260 30060 ft 471 kts 206°
2026-05-06 16:00 27.01560 103.06526 30063 ft 483 kts 206°
2026-05-06 16:01 26.98448 103.05159 30505 ft 477 kts 206°
2026-05-06 16:01 26.95384 103.03818 31040 ft 469 kts 206°
2026-05-06 16:01 26.92368 103.02501 31535 ft 460 kts 207°
2026-05-06 16:01 26.89379 103.01194 31608 ft 463 kts 207°
2026-05-06 16:02 26.83379 102.98554 31459 ft 455 kts 207°
2026-05-06 16:02 26.80485 102.97288 30860 ft 451 kts 207°
2026-05-06 16:02 26.77523 102.95993 30285 ft 455 kts 206°
2026-05-06 16:03 26.74584 102.94702 30085 ft 465 kts 206°
2026-05-06 16:03 26.71521 102.93354 30016 ft 468 kts 206°
2026-05-06 16:03 26.65506 102.90721 30011 ft 462 kts 206°
2026-05-06 16:04 26.59588 102.88136 30010 ft 453 kts 206°
2026-05-06 16:04 26.53716 102.85565 30011 ft 454 kts 207°
2026-05-06 16:05 26.47838 102.82994 30026 ft 453 kts 207°
2026-05-06 16:05 26.41967 102.80435 30031 ft 453 kts 207°
2026-05-06 16:06 26.36096 102.77879 30051 ft 453 kts 207°
2026-05-06 16:06 26.30237 102.75333 30049 ft 450 kts 206°
2026-05-06 16:07 26.24395 102.72794 30062 ft 451 kts 207°
2026-05-06 16:07 26.18545 102.70255 30061 ft 448 kts 206°
2026-05-06 16:08 26.12458 102.68488 30084 ft 461 kts 194°
2026-05-06 16:08 26.06085 102.67488 30100 ft 463 kts 194°
2026-05-06 16:09 25.99713 102.66472 30071 ft 463 kts 194°
2026-05-06 16:09 25.93323 102.65444 30120 ft 465 kts 194°
2026-05-06 16:10 25.86925 102.64427 30122 ft 465 kts 194°
2026-05-06 16:10 25.80523 102.63418 30127 ft 464 kts 194°
2026-05-06 16:11 25.74130 102.62405 30112 ft 464 kts 194°
2026-05-06 16:11 25.67775 102.61390 30113 ft 466 kts 194°
2026-05-06 16:12 25.61346 102.60368 30113 ft 467 kts 194°
2026-05-06 16:12 25.54908 102.59355 30117 ft 467 kts 194°
2026-05-06 16:13 25.48475 102.58345 30119 ft 467 kts 194°
2026-05-06 16:13 25.42048 102.57331 30125 ft 466 kts 194°
2026-05-06 16:14 25.35604 102.56310 30132 ft 469 kts 194°
2026-05-06 16:14 25.29150 102.55290 30131 ft 469 kts 194°
2026-05-06 16:15 25.22685 102.54274 30138 ft 469 kts 193°
2026-05-06 16:15 25.16228 102.53244 30137 ft 467 kts 196°
2026-05-06 16:16 25.10292 102.50763 30125 ft 451 kts 217°
2026-05-06 16:16 25.05712 102.46192 30125 ft 442 kts 236°
2026-05-06 16:17 25.02657 102.40379 30117 ft 438 kts 245°
2026-05-06 16:17 24.99821 102.34429 30125 ft 438 kts 245°
2026-05-06 16:18 24.96971 102.28487 30108 ft 439 kts 244°
2026-05-06 16:18 24.94128 102.22539 30108 ft 439 kts 245°
2026-05-06 16:19 24.91288 102.16585 30087 ft 439 kts 245°
2026-05-06 16:19 24.88439 102.10633 30086 ft 439 kts 244°
2026-05-06 16:20 24.85591 102.04694 30082 ft 438 kts 245°
2026-05-06 16:20 24.82762 101.98800 30070 ft 438 kts 244°
2026-05-06 16:21 24.79912 101.92867 30077 ft 438 kts 244°
2026-05-06 16:21 24.77060 101.86940 30055 ft 438 kts 244°
2026-05-06 16:22 24.74205 101.81006 30054 ft 439 kts 244°
2026-05-06 16:22 24.71817 101.76039 30057 ft 439 kts 244°
2026-05-06 16:23 24.68955 101.70108 30044 ft 439 kts 244°
2026-05-06 16:23 24.66112 101.64230 30047 ft 437 kts 244°
2026-05-06 16:24 24.63883 101.58095 30040 ft 431 kts 260°
2026-05-06 16:24 24.63835 101.51554 30039 ft 431 kts 279°
2026-05-06 16:25 24.65502 101.45206 30043 ft 433 kts 285°
2026-05-06 16:25 24.67287 101.38881 30042 ft 434 kts 285°
2026-05-06 16:26 24.69073 101.32550 30041 ft 433 kts 285°
2026-05-06 16:26 24.70858 101.26226 30039 ft 433 kts 285°
2026-05-06 16:27 24.72635 101.19902 30038 ft 434 kts 285°
2026-05-06 16:27 24.74415 101.13566 30038 ft 433 kts 285°
2026-05-06 16:28 24.76183 101.07242 30037 ft 433 kts 285°
2026-05-06 16:28 24.77957 101.00906 30036 ft 433 kts 285°
2026-05-06 16:29 24.79723 100.94576 30037 ft 433 kts 285°
2026-05-06 16:29 24.81480 100.88242 30037 ft 433 kts 285°
2026-05-06 16:30 24.82946 100.82978 30037 ft 433 kts 285°
2026-05-06 16:30 24.85001 100.75577 30033 ft 432 kts 285°
2026-05-06 16:31 24.86753 100.69235 30027 ft 433 kts 285°
2026-05-06 16:31 24.88510 100.62891 30026 ft 434 kts 285°
2026-05-06 16:32 24.90266 100.56542 30022 ft 433 kts 285°
2026-05-06 16:32 24.91995 100.50265 30017 ft 430 kts 285°
2026-05-06 16:33 24.93727 100.43966 30017 ft 430 kts 285°
2026-05-06 16:34 24.96339 100.34510 29926 ft 431 kts 288°
2026-05-06 16:34 24.97675 100.31546 29653 ft 436 kts 300°
2026-05-06 16:34 24.99637 100.28967 29390 ft 443 kts 313°
2026-05-06 16:34 25.02136 100.26929 29112 ft 453 kts 326°
2026-05-06 16:35 25.05064 100.25564 28855 ft 464 kts 339°
2026-05-06 16:35 25.08292 100.25005 28597 ft 477 kts 353°
2026-05-06 16:35 25.11639 100.25273 28341 ft 486 kts
2026-05-06 16:35 25.15003 100.25730 28093 ft 487 kts
2026-05-06 16:36 25.18369 100.26191 27845 ft 489 kts
2026-05-06 16:36 25.21749 100.26650 27598 ft 489 kts
2026-05-06 16:36 25.25130 100.27105 27346 ft 490 kts
2026-05-06 16:36 25.28512 100.27556 27135 ft 490 kts
2026-05-06 16:37 25.31901 100.28006 26896 ft 491 kts
2026-05-06 16:37 25.35302 100.28456 26651 ft 492 kts
2026-05-06 16:37 25.38706 100.28908 26418 ft 493 kts
2026-05-06 16:37 25.42111 100.29360 26177 ft 493 kts
2026-05-06 16:38 25.45518 100.29813 25943 ft 494 kts
2026-05-06 16:38 25.48931 100.30271 25713 ft 494 kts
2026-05-06 16:38 25.52346 100.30731 25481 ft 495 kts
2026-05-06 16:38 25.55766 100.31189 25247 ft 495 kts
2026-05-06 16:39 25.59188 100.31649 25040 ft 496 kts
2026-05-06 16:39 25.62618 100.32125 24815 ft 497 kts
2026-05-06 16:39 25.66002 100.32992 24585 ft 503 kts 13°
2026-05-06 16:39 25.69320 100.34264 24360 ft 505 kts 15°
2026-05-06 16:40 25.72633 100.35553 24130 ft 505 kts 15°
2026-05-06 16:40 25.75912 100.36828 23937 ft 506 kts 15°
2026-05-06 16:40 25.79278 100.38136 23699 ft 505 kts 15°
2026-05-06 16:40 25.82590 100.39425 23463 ft 504 kts 15°
2026-05-06 16:41 25.85847 100.40693 23209 ft 502 kts 15°
2026-05-06 16:41 25.89138 100.41979 22956 ft 500 kts 15°
2026-05-06 16:41 25.92404 100.43258 22706 ft 497 kts 15°
2026-05-06 16:41 25.95667 100.44533 22449 ft 495 kts 15°
2026-05-06 16:42 25.98908 100.45795 22198 ft 493 kts 15°
2026-05-06 16:42 26.02135 100.47050 21837 ft 491 kts 15°
2026-05-06 16:42 26.05403 100.47927 21076 ft 473 kts
2026-05-06 16:42 26.08569 100.47729 20339 ft 443 kts 343°
2026-05-06 16:43 26.11376 100.46604 19620 ft 418 kts 328°
2026-05-06 16:43 26.13685 100.44797 18904 ft 397 kts 314°
2026-05-06 16:43 26.15438 100.42529 18207 ft 380 kts 300°
2026-05-06 16:43 26.16669 100.40000 17412 ft 366 kts 294°
2026-05-06 16:44 26.17789 100.37492 16634 ft 357 kts 295°
2026-05-06 16:44 26.18886 100.35045 15896 ft 350 kts 295°
2026-05-06 16:44 26.19955 100.32631 15162 ft 344 kts 292°
2026-05-06 16:44 26.20725 100.30144 14439 ft 337 kts 287°
2026-05-06 16:45 26.21417 100.27673 13746 ft 332 kts 287°
2026-05-06 16:45 26.22083 100.25242 13187 ft 321 kts 286°
2026-05-06 16:45 26.22708 100.22939 13034 ft 302 kts 286°
2026-05-06 16:45 26.23303 100.20748 13008 ft 289 kts 286°
2026-05-06 16:46 26.23873 100.18654 13014 ft 275 kts 286°
2026-05-06 16:46 26.24418 100.16664 13016 ft 262 kts 287°
2026-05-06 16:46 26.24940 100.14760 13018 ft 252 kts 287°
2026-05-06 16:46 26.25505 100.12966 13039 ft 240 kts 299°
2026-05-06 16:47 26.26623 100.11660 13029 ft 240 kts 329°
2026-05-06 16:47 26.28261 100.11200 13029 ft 246 kts
2026-05-06 16:47 26.29917 100.11643 13066 ft 237 kts 13°
2026-05-06 16:47 26.31410 100.12146 13056 ft 220 kts 12°
2026-05-06 16:48 26.32830 100.12624 13044 ft 207 kts 12°
2026-05-06 16:48 26.34154 100.13072 13002 ft 192 kts 11°
2026-05-06 16:48 26.35403 100.13495 13030 ft 182 kts 12°
2026-05-06 16:48 26.36598 100.13899 12892 ft 178 kts 11°
2026-05-06 16:49 26.37779 100.14298 12691 ft 177 kts 11°
2026-05-06 16:49 26.38951 100.14695 12471 ft 176 kts 11°
2026-05-06 16:49 26.40126 100.15093 12248 ft 176 kts 11°
2026-05-06 16:49 26.41294 100.15489 12025 ft 175 kts 12°
2026-05-06 16:50 26.42454 100.15883 11797 ft 174 kts 11°
2026-05-06 16:50 26.43614 100.16276 11584 ft 175 kts 13°
2026-05-06 16:50 26.44779 100.16672 11359 ft 175 kts 13°
2026-05-06 16:50 26.45940 100.17066 11137 ft 174 kts 13°
2026-05-06 16:51 26.47099 100.17460 10920 ft 174 kts 12°
2026-05-06 16:51 26.48267 100.17857 10699 ft 176 kts 12°
2026-05-06 16:51 26.49438 100.18255 10485 ft 175 kts 14°
2026-05-06 16:51 26.50598 100.18649 10283 ft 174 kts 13°
2026-05-06 16:52 26.51764 100.19045 10067 ft 176 kts 15°
2026-05-06 16:52 26.52929 100.19442 9868 ft 174 kts 14°
2026-05-06 16:52 26.54093 100.19837 9678 ft 175 kts 15°
2026-05-06 16:52 26.55247 100.20230 9499 ft 173 kts 14°
2026-05-06 16:53 26.56414 100.20627 9171 ft 179 kts 13°
2026-05-06 16:53 26.57593 100.21028 8938 ft 176 kts 14°
2026-05-06 16:53 26.58756 100.21424 8702 ft 175 kts 14°
2026-05-06 16:53 26.59912 100.21818 8526 ft 171 kts 14°
2026-05-06 16:54 26.61044 100.22204 8349 ft 169 kts 15°
2026-05-06 16:54 26.62167 100.22586 8176 ft 169 kts 15°
2026-05-06 16:54 26.63279 100.22965 7984 ft 166 kts 15°
2026-05-06 16:54 26.64380 100.23344 7760 ft 165 kts 14°
2026-05-06 16:55 26.65474 100.23724 7546 ft 165 kts 15°
2026-05-06 16:55 26.66567 100.24093 7335 ft 162 kts 15°
2026-05-06 16:55 26.67555 100.24432 7307 ft 121 kts 16°
2026-05-06 16:55 26.68071 100.24600 7310 ft 37 kts 17°
2026-05-06 16:56 26.68311 100.24682 7312 ft 35 kts 17°
2026-05-06 16:56 26.68517 100.24755 7312 ft 21 kts 32°
2026-05-06 16:56 26.68518 100.24897 7310 ft 18 kts 112°
2026-05-06 16:56 26.68421 100.24904 7310 ft 15 kts 197°
2026-05-06 16:57 26.68320 100.24869 7310 ft 16 kts 197°
2026-05-06 16:57 26.68213 100.24833 7310 ft 16 kts 197°
2026-05-06 16:57 26.68103 100.24795 7310 ft 17 kts 197°
2026-05-06 16:57 26.67990 100.24756 7310 ft 18 kts 197°
2026-05-06 16:58 26.67871 100.24715 7310 ft 18 kts 197°
2026-05-06 16:58 26.67749 100.24673 7310 ft 19 kts 196°
2026-05-06 16:58 26.67620 100.24631 7310 ft 20 kts 196°
2026-05-06 16:58 26.67488 100.24586 7310 ft 20 kts 198°
2026-05-06 16:59 26.67353 100.24538 7310 ft 21 kts 197°
2026-05-06 16:59 26.67216 100.24489 7310 ft 20 kts 198°
2026-05-06 16:59 26.67085 100.24450 7311 ft 14 kts 195°
2026-05-06 16:59 26.66991 100.24475 7311 ft 14 kts 157°
2026-05-06 17:00 26.66961 100.24489 7310 ft 0 kts 157°